Radiation Dose at Monitoring Post of Fukushima Daini Nuclear Power Station
Date,Time,MP-1(microSv/h),MP-2(microSv/h),MP-3(microSv/h),MP-4(microSv/h),MP-5(microSv/h),MP-6(microSv/h),MP-7(microSv/h),Wind Direction,Wind Velocity(m/s),Rain
2016/09/24,00:00,0.375,0.229,0.395,0.363,0.358,0.185,0.158,north-northwest,3.9,No
2016/09/24,00:10,0.374,0.229,0.397,0.366,0.356,0.185,0.157,north,2.7,No
2016/09/24,00:20,0.377,0.229,0.393,0.363,0.355,0.186,0.157,north,5.1,No
2016/09/24,00:30,0.373,0.228,0.396,0.365,0.358,0.186,0.157,north-northwest,2.3,No
2016/09/24,00:40,0.375,0.230,0.396,0.364,0.356,0.185,0.157,north,4.0,No
2016/09/24,00:50,0.374,0.228,0.394,0.362,0.359,0.186,0.156,north-northwest,5.1,Yes
2016/09/24,01:00,0.375,0.229,0.396,0.365,0.357,0.185,0.158,north-northwest,4.7,Yes
2016/09/24,01:10,0.375,0.229,0.395,0.362,0.357,0.185,0.157,north-northwest,5.0,Yes
2016/09/24,01:20,0.374,0.229,0.396,0.364,0.358,0.187,0.157,north,5.2,Yes
2016/09/24,01:30,0.379,0.232,0.396,0.367,0.358,0.187,0.159,north-northwest,5.3,Yes
2016/09/24,01:40,0.377,0.232,0.396,0.364,0.363,0.190,0.161,northwest,3.9,Yes
2016/09/24,01:50,0.379,0.235,0.401,0.369,0.359,0.191,0.162,north-northeast,6.7,Yes
2016/09/24,02:00,0.380,0.234,0.396,0.364,0.361,0.194,0.163,north-northeast,19.9,Yes
2016/09/24,02:10,0.380,0.237,0.399,0.368,0.361,0.193,0.164,north,1.4,Yes
2016/09/24,02:20,0.381,0.237,0.397,0.367,0.363,0.195,0.166,north,5.3,Yes
2016/09/24,02:30,0.379,0.236,0.397,0.365,0.365,0.194,0.165,north,5.9,Yes
2016/09/24,02:40,0.382,0.236,0.396,0.368,0.361,0.193,0.165,north,6.2,Yes
2016/09/24,02:50,0.379,0.234,0.394,0.365,0.363,0.192,0.163,north,5.4,Yes
2016/09/24,03:00,0.379,0.234,0.397,0.364,0.361,0.190,0.163,north,4.5,Yes
2016/09/24,03:10,0.378,0.232,0.393,0.361,0.361,0.192,0.161,north,4.7,No
2016/09/24,03:20,0.376,0.231,0.395,0.364,0.357,0.189,0.160,north,5.7,No
2016/09/24,03:30,0.376,0.231,0.394,0.361,0.359,0.187,0.160,north,6.1,No
2016/09/24,03:40,0.373,0.230,0.392,0.360,0.357,0.188,0.159,north,6.1,No
2016/09/24,03:50,0.376,0.231,0.394,0.361,0.358,0.186,0.159,north,6.2,No
2016/09/24,04:00,0.372,0.228,0.391,0.360,0.356,0.187,0.157,north,6.7,No
2016/09/24,04:10,0.375,0.230,0.392,0.360,0.355,0.185,0.158,north,6.9,No
2016/09/24,04:20,0.373,0.229,0.390,0.358,0.356,0.186,0.156,north,5.3,No
2016/09/24,04:30,0.374,0.229,0.394,0.361,0.355,0.184,0.157,north,4.7,No
2016/09/24,04:40,0.374,0.226,0.392,0.360,0.357,0.184,0.155,north-northeast,5.6,No
2016/09/24,04:50,0.372,0.228,0.390,0.361,0.355,0.185,0.156,north,4.1,No
2016/09/24,05:00,0.375,0.228,0.392,0.360,0.357,0.184,0.155,north-northeast,5.3,No
2016/09/24,05:10,0.372,0.226,0.390,0.360,0.356,0.184,0.156,north,4.6,No
2016/09/24,05:20,0.372,0.228,0.392,0.359,0.356,0.184,0.156,north-northeast,3.6,No
2016/09/24,05:30,0.374,0.226,0.390,0.357,0.356,0.184,0.154,north-northeast,3.8,No
2016/09/24,05:40,0.371,0.227,0.391,0.361,0.354,0.184,0.156,north-northeast,3.2,No
2016/09/24,05:50,0.375,0.227,0.393,0.360,0.356,0.182,0.155,north-northeast,3.7,No
2016/09/24,06:00,0.371,0.227,0.390,0.359,0.352,0.184,0.156,north,3.6,No
2016/09/24,06:10,0.374,0.228,0.394,0.361,0.358,0.184,0.156,north,3.6,No
2016/09/24,06:20,0.375,0.225,0.391,0.359,0.356,0.183,0.155,north,3.9,No
2016/09/24,06:30,0.371,0.227,0.392,0.362,0.355,0.184,0.156,north,4.1,No
2016/09/24,06:40,0.374,0.226,0.394,0.360,0.357,0.184,0.155,north,3.0,No
2016/09/24,06:50,0.370,0.227,0.390,0.359,0.353,0.185,0.155,north,2.4,No
2016/09/24,07:00,0.373,0.228,0.392,0.361,0.356,0.184,0.155,north,1.3,No
2016/09/24,07:10,0.374,0.226,0.391,0.357,0.354,0.183,0.155,-,CALM,No
2016/09/24,07:20,0.370,0.227,0.391,0.362,0.353,0.183,0.156,-,CALM,No
2016/09/24,07:30,0.375,0.227,0.393,0.360,0.355,0.183,0.154,-,CALM,No
2016/09/24,07:40,0.372,0.226,0.389,0.357,0.353,0.184,0.156,north,2.4,No
2016/09/24,07:50,0.371,0.226,0.391,0.361,0.354,0.183,0.156,north-northwest,2.9,No
2016/09/24,08:00,0.374,0.226,0.392,0.358,0.357,0.182,0.154,west-northwest,1.4,No
2016/09/24,08:10,0.371,0.226,0.390,0.361,0.352,0.185,0.155,north-northwest,1.3,No
2016/09/24,08:20,0.374,0.229,0.394,0.361,0.356,0.184,0.155,north-northwest,1.7,No
2016/09/24,08:30,0.374,0.227,0.393,0.358,0.355,0.183,0.155,north-northwest,2.8,No
2016/09/24,08:40,0.370,0.226,0.387,0.362,0.352,0.184,0.155,north,3.1,No
2016/09/24,08:50,0.374,0.228,0.392,0.361,0.357,0.184,0.155,north,4.0,No
2016/09/24,09:00,0.375,0.226,0.393,0.359,0.356,0.183,0.155,north-northwest,4.0,No
2016/09/24,09:10,0.371,0.227,0.390,0.360,0.354,0.184,0.154,north-northwest,4.2,No
2016/09/24,09:20,0.373,0.225,0.389,0.362,0.352,0.184,0.154,north-northwest,4.1,No
2016/09/24,09:30,0.376,0.227,0.392,0.361,0.354,0.184,0.154,north,3.3,No
2016/09/24,09:40,0.372,0.229,0.392,0.356,0.356,0.184,0.156,north-northwest,3.6,No
2016/09/24,09:50,0.370,0.225,0.389,0.358,0.355,0.184,0.155,north,3.9,No
2016/09/24,10:00,0.374,0.226,0.391,0.361,0.355,0.183,0.155,north-northwest,3.9,No
2016/09/24,10:10,0.377,0.227,0.393,0.360,0.350,0.185,0.153,north-northwest,5.1,No
2016/09/24,10:20,0.371,0.228,0.392,0.357,0.358,0.184,0.155,north,3.7,No
2016/09/24,10:30,0.371,0.227,0.389,0.359,0.357,0.183,0.155,north,4.2,No
2016/09/24,10:40,0.376,0.227,0.395,0.362,0.355,0.184,0.155,north,3.9,No
2016/09/24,10:50,0.376,0.226,0.393,0.362,0.353,0.184,0.154,north-northeast,2.8,No
2016/09/24,11:00,0.372,0.227,0.390,0.359,0.352,0.185,0.154,north-northeast,3.8,No
2016/09/24,11:10,0.374,0.227,0.390,0.357,0.357,0.185,0.155,north,3.3,No
2016/09/24,11:20,0.376,0.226,0.395,0.364,0.357,0.184,0.156,north,3.4,No
2016/09/24,11:30,0.373,0.228,0.393,0.362,0.355,0.183,0.154,north,3.1,No
2016/09/24,11:40,0.373,0.227,0.389,0.360,0.352,0.184,0.155,north-northeast,4.0,No
2016/09/24,11:50,0.377,0.227,0.394,0.361,0.355,0.184,0.156,north-northeast,5.3,No
2016/09/24,12:00,0.375,0.226,0.395,0.363,0.358,0.184,0.156,north-northeast,5.9,No
2016/09/24,12:10,0.372,0.226,0.393,0.361,0.355,0.183,0.155,north-northeast,4.9,No
2016/09/24,12:20,0.374,0.228,0.391,0.359,0.352,0.185,0.155,north,5.2,No
2016/09/24,12:30,0.378,0.228,0.390,0.360,0.352,0.184,0.154,north,5.1,No
2016/09/24,12:40,0.373,0.227,0.396,0.363,0.355,0.185,0.155,north-northeast,5.7,No
2016/09/24,12:50,0.372,0.227,0.392,0.362,0.360,0.185,0.156,north-northeast,4.9,No
2016/09/24,13:00,0.376,0.227,0.392,0.361,0.356,0.184,0.155,north-northeast,4.6,No
2016/09/24,13:10,0.376,0.227,0.393,0.362,0.352,0.184,0.154,north-northeast,4.5,No
2016/09/24,13:20,0.372,0.226,0.395,0.364,0.355,0.184,0.155,north-northeast,3.8,No
2016/09/24,13:30,0.376,0.228,0.394,0.363,0.358,0.184,0.156,north-northeast,3.7,No
2016/09/24,13:40,0.376,0.228,0.388,0.361,0.357,0.184,0.155,north-northeast,3.6,No
2016/09/24,13:50,0.373,0.227,0.395,0.363,0.353,0.185,0.155,north-northeast,3.0,No
2016/09/24,14:00,0.375,0.229,0.395,0.364,0.357,0.185,0.156,north-northeast,2.3,No
2016/09/24,14:10,0.377,0.228,0.392,0.361,0.359,0.184,0.156,north-northeast,2.2,No
2016/09/24,14:20,0.373,0.227,0.393,0.363,0.355,0.185,0.156,north-northeast,2.5,No
2016/09/24,14:30,0.376,0.228,0.395,0.363,0.356,0.185,0.157,northeast,2.0,No
2016/09/24,14:40,0.375,0.229,0.394,0.361,0.361,0.184,0.156,northeast,1.9,No
2016/09/24,14:50,0.374,0.227,0.391,0.363,0.355,0.183,0.154,northeast,1.1,No
2016/09/24,15:00,0.376,0.228,0.396,0.364,0.354,0.186,0.156,east-northeast,1.0,No
2016/09/24,15:10,0.377,0.230,0.394,0.361,0.359,0.185,0.156,northeast,1.3,No
2016/09/24,15:20,0.373,0.227,0.392,0.363,0.356,0.184,0.155,south-southeast,0.7,No
2016/09/24,15:30,0.374,0.227,0.396,0.364,0.354,0.185,0.156,southeast,0.9,No
2016/09/24,15:40,0.377,0.229,0.395,0.360,0.358,0.185,0.156,-,CALM,No
2016/09/24,15:50,0.374,0.227,0.393,0.362,0.357,0.184,0.156,-,CALM,No
2016/09/24,16:00,0.375,0.228,0.396,0.364,0.354,0.185,0.156,north-northwest,0.8,No
2016/09/24,16:10,0.377,0.229,0.396,0.361,0.357,0.184,0.156,northwest,1.3,No
2016/09/24,16:20,0.374,0.227,0.391,0.362,0.357,0.184,0.155,northwest,1.4,No
2016/09/24,16:30,0.373,0.228,0.396,0.364,0.355,0.184,0.156,northwest,0.7,No
2016/09/24,16:40,0.377,0.229,0.395,0.361,0.356,0.184,0.156,northwest,0.6,No
2016/09/24,16:50,0.375,0.227,0.392,0.364,0.358,0.184,0.155,north-northwest,0.7,No
2016/09/24,17:00,0.376,0.228,0.396,0.365,0.355,0.184,0.156,north-northeast,0.9,No
2016/09/24,17:10,0.377,0.229,0.395,0.360,0.357,0.184,0.156,north-northeast,1.0,No
2016/09/24,17:20,0.374,0.228,0.392,0.365,0.358,0.184,0.156,north,0.6,No
2016/09/24,17:30,0.375,0.229,0.397,0.364,0.355,0.184,0.156,north,0.8,Yes
2016/09/24,17:40,0.377,0.230,0.394,0.361,0.358,0.184,0.155,north-northeast,0.8,Yes
2016/09/24,17:50,0.374,0.228,0.393,0.366,0.358,0.186,0.156,-,CALM,No
2016/09/24,18:00,0.377,0.229,0.396,0.363,0.355,0.186,0.156,southwest,1.1,Yes
2016/09/24,18:10,0.375,0.229,0.393,0.364,0.358,0.184,0.155,northeast,1.2,Yes
2016/09/24,18:20,0.374,0.228,0.396,0.366,0.357,0.185,0.156,-,CALM,No
2016/09/24,18:30,0.376,0.228,0.395,0.362,0.357,0.186,0.156,north,1.8,Yes
2016/09/24,18:40,0.375,0.228,0.393,0.366,0.358,0.184,0.156,north-northwest,1.5,No
2016/09/24,18:50,0.379,0.229,0.397,0.362,0.355,0.185,0.157,west-northwest,2.3,No
2016/09/24,19:00,0.377,0.227,0.396,0.361,0.358,0.184,0.157,west-northwest,1.4,No
2016/09/24,19:10,0.375,0.228,0.395,0.367,0.357,0.185,0.157,north-northwest,0.6,No
2016/09/24,19:20,0.377,0.230,0.396,0.362,0.356,0.184,0.157,north-northwest,0.8,No
2016/09/24,19:30,0.375,0.227,0.395,0.364,0.359,0.185,0.156,west,0.7,No
2016/09/24,19:40,0.376,0.229,0.396,0.365,0.356,0.186,0.157,-,CALM,No
2016/09/24,19:50,0.376,0.230,0.395,0.364,0.356,0.185,0.156,-,CALM,No
2016/09/24,20:00,0.373,0.227,0.393,0.366,0.359,0.184,0.155,north-northeast,2.1,No
2016/09/24,20:10,0.377,0.230,0.397,0.363,0.353,0.186,0.157,north,1.9,No
2016/09/24,20:20,0.375,0.228,0.394,0.363,0.358,0.184,0.156,north,3.4,No
2016/09/24,20:30,0.377,0.230,0.395,0.365,0.357,0.185,0.157,north-northwest,4.4,No
2016/09/24,20:40,0.378,0.229,0.397,0.361,0.357,0.185,0.157,north-northwest,5.8,No
2016/09/24,20:50,0.373,0.227,0.394,0.365,0.358,0.185,0.156,northwest,3.9,No
2016/09/24,21:00,0.376,0.229,0.398,0.364,0.355,0.186,0.158,northwest,3.6,No
2016/09/24,21:10,0.376,0.228,0.395,0.362,0.359,0.185,0.155,northwest,2.7,Yes
2016/09/24,21:20,0.375,0.228,0.394,0.365,0.356,0.187,0.156,west-northwest,1.9,No
2016/09/24,21:30,0.378,0.229,0.397,0.362,0.356,0.186,0.157,southwest,1.6,No
2016/09/24,21:40,0.373,0.227,0.393,0.364,0.359,0.184,0.156,south-southwest,1.1,No
2016/09/24,21:50,0.377,0.229,0.397,0.363,0.355,0.185,0.156,south,1.1,No
2016/09/24,22:00,0.376,0.228,0.394,0.363,0.359,0.185,0.156,south-southeast,4.6,No
2016/09/24,22:10,0.374,0.228,0.394,0.365,0.357,0.186,0.157,south-southwest,2.5,No
2016/09/24,22:20,0.379,0.230,0.397,0.363,0.355,0.186,0.157,west,1.3,No
2016/09/24,22:30,0.375,0.228,0.394,0.365,0.359,0.186,0.157,south-southwest,2.2,No
2016/09/24,22:40,0.376,0.230,0.398,0.364,0.356,0.186,0.157,south-southwest,3.1,No
2016/09/24,22:50,0.376,0.228,0.396,0.362,0.357,0.185,0.156,south-southwest,3.6,No
2016/09/24,23:00,0.374,0.228,0.394,0.365,0.356,0.186,0.156,south-southwest,3.9,No
2016/09/24,23:10,0.378,0.229,0.396,0.362,0.355,0.186,0.156,south-southwest,4.0,No
2016/09/24,23:20,0.375,0.227,0.392,0.366,0.358,0.186,0.157,south-southwest,1.3,No
2016/09/24,23:30,0.376,0.229,0.395,0.364,0.355,0.187,0.157,south-southwest,0.7,No
2016/09/24,23:40,0.376,0.227,0.395,0.364,0.360,0.185,0.156,west,1.0,No
2016/09/24,23:50,0.375,0.229,0.395,0.365,0.356,0.187,0.158,north-northwest,1.0,No
